Change the Weather History Date:

Sunday, April 20, 2014

  Actual Average (KMLU) Record (KMLU)
Temperature  
Mean Temperature 66 °F 67 °F  
Max Temperature 82 °F 79 °F 94 °F (1987)
Min Temperature 50 °F 55 °F 37 °F (1953)
Degree Days  
Heating Degree Days 0 2  
Month to date heating degree days 69  
Since 1 July heating degree days 2213  
Cooling Degree Days 1 4  
Month to date cooling degree days 56  
Year to date cooling degree days 99  
Growing Degree Days 16 (Base 50)    
Moisture  
Dew Point 52 °F    
Average Humidity 66    
Maximum Humidity 97    
Minimum Humidity 30    
Precipitation  
Precipitation 0.00 in 0.16 in 3.87 in (1995)
Month to date precipitation 2.96  
Year to date precipitation 17.32  
Snow  
Snow 0.00 in - - ()
Month to date snowfall  
Since 1 July snowfall  
Snow Depth -    
Sea Level Pressure  
Sea Level Pressure 30.14 in    
Wind  
Wind Speed 1 mph (ESE)    
Max Wind Speed 7 mph    
Max Gust Speed -    
Visibility 9 miles    
Events      
T = Trace of Precipitation, MM = Missing Value Source: NWS Daily Summary

Daily Weather History Graph

Daily Weather History Graph

Search for Another Location

Airport or City:

Trip Planner

Search our weather history database for the weather conditions in past years. The results will help you decide how hot, cold, wet, or windy it might be!

Date:

Astronomy

Apr. 20, 2014 Rise Set
Actual Time 6:32 AM CDT 7:41 PM CDT
Civil Twilight 6:06 AM CDT 8:06 PM CDT
Nautical Twilight 5:36 AM CDT 8:37 PM CDT
Astronomical Twilight 5:04 AM CDT 9:08 PM CDT
Moon 12:14 AM CDT (4/20) 10:59 AM CDT (4/20)
Length of Visible Light 14h 00m
Length of Day
13h 09m
Waning Gibbous, 68% of the Moon is Illuminated
Apr 20
Waning Gibbous
Apr 22
Last Quarter
Apr 29
New
May 6
First Quarter
May 14
Full

Hourly Weather History & Observations

Time (CDT) Temp. Dew Point Humidity Pressure Visibility Wind Dir Wind Speed Gust Speed Precip Events Conditions
12:15 AM 55.4 °F 53.1 °F 92% 30.15 in 10.0 mi Calm Calm - N/A   Clear
12:35 AM 55.4 °F 53.1 °F 92% 30.15 in 10.0 mi Calm Calm - N/A   Clear
12:55 AM 54.0 °F 52.3 °F 94% 30.15 in 10.0 mi Calm Calm - N/A   Clear
1:15 AM 53.8 °F 51.6 °F 92% 30.15 in 10.0 mi Calm Calm - N/A   Clear
1:35 AM 53.6 °F 52.0 °F 94% 30.15 in 10.0 mi Calm Calm - N/A   Clear
1:55 AM 52.7 °F 50.9 °F 94% 30.15 in 10.0 mi Calm Calm - N/A   Clear
2:15 AM 52.9 °F 51.4 °F 95% 30.15 in 10.0 mi Calm Calm - N/A   Clear
2:35 AM 52.3 °F 51.1 °F 95% 30.15 in 10.0 mi Calm Calm - N/A   Clear
2:55 AM 52.5 °F 51.3 °F 95% 30.15 in 7.0 mi Calm Calm - N/A   Clear
3:15 AM 52.3 °F 51.3 °F 96% 30.15 in 7.0 mi Calm Calm - N/A   Clear
3:35 AM 51.6 °F 50.5 °F 96% 30.15 in 7.0 mi Calm Calm - N/A   Clear
3:55 AM 51.1 °F 50.0 °F 96% 30.16 in 7.0 mi Calm Calm - N/A   Clear
4:15 AM 51.1 °F 50.0 °F 96% 30.16 in 7.0 mi Calm Calm - N/A   Clear
4:35 AM 50.5 °F 49.5 °F 96% 30.16 in 5.0 mi Calm Calm - N/A   Clear
4:55 AM 50.5 °F 49.6 °F 97% 30.16 in 2.0 mi Calm Calm - N/A   Clear
5:15 AM 51.4 °F 50.5 °F 97% 30.16 in 4.0 mi Calm Calm - N/A   Clear
5:35 AM 51.1 °F 50.2 °F 97% 30.17 in 5.0 mi Calm Calm - N/A   Clear
5:55 AM 51.1 °F 50.2 °F 97% 30.16 in 2.0 mi Calm Calm - N/A   Clear
6:15 AM 50.2 °F 49.3 °F 97% 30.16 in 3.0 mi Calm Calm - N/A   Clear
6:35 AM 50.5 °F 49.6 °F 97% 30.17 in 1.0 mi Calm Calm - N/A   Mist
6:55 AM 51.8 °F 51.1 °F 97% 30.18 in 2.5 mi Calm Calm - N/A   Clear
7:15 AM 52.0 °F 51.1 °F 97% 30.19 in 3.0 mi Calm Calm - N/A   Clear
7:35 AM 54.7 °F 53.8 °F 97% 30.20 in 5.0 mi Calm Calm - N/A   Clear
7:55 AM 57.9 °F 56.8 °F 96% 30.20 in 5.0 mi Calm Calm - N/A   Clear
8:15 AM 61.9 °F 58.5 °F 89% 30.21 in 10.0 mi Calm Calm - N/A   Clear
8:35 AM 64.6 °F 57.2 °F 77% 30.20 in 10.0 mi Calm Calm - N/A   Clear
8:55 AM 67.3 °F 53.8 °F 62% 30.21 in 10.0 mi Calm Calm - N/A   Clear
9:15 AM 69.3 °F 52.7 °F 56% 30.21 in 10.0 mi East 3.5 mph - N/A   Clear
9:35 AM 70.2 °F 51.3 °F 51% 30.21 in 10.0 mi East 4.6 mph - N/A   Clear
9:55 AM 72.0 °F 50.9 °F 47% 30.22 in 10.0 mi Calm Calm - N/A   Clear
10:15 AM 73.0 °F 50.0 °F 44% 30.22 in 10.0 mi East 3.5 mph - N/A   Clear
10:35 AM 75.2 °F 48.9 °F 39% 30.22 in 10.0 mi East 4.6 mph - N/A   Clear
10:55 AM 75.9 °F 48.4 °F 38% 30.21 in 10.0 mi East 5.8 mph - N/A   Clear
11:15 AM 76.5 °F 48.4 °F 37% 30.20 in 10.0 mi ESE 3.5 mph - N/A   Clear
11:35 AM 78.8 °F 50.2 °F 37% 30.20 in 10.0 mi NE 3.5 mph - N/A   Clear
11:55 AM 78.8 °F 48.4 °F 34% 30.20 in 10.0 mi NE 4.6 mph - N/A   Clear
12:15 PM 79.0 °F 47.5 °F 33% 30.19 in 10.0 mi SE 5.8 mph - N/A   Clear
12:35 PM 78.8 °F 47.5 °F 33% 30.18 in 10.0 mi SSW 3.5 mph - N/A   Clear
12:55 PM 79.5 °F 47.5 °F 32% 30.17 in 10.0 mi Calm Calm - N/A   Clear
1:15 PM 79.0 °F 47.7 °F 33% 30.16 in 10.0 mi Calm Calm - N/A   Clear
1:35 PM 80.8 °F 48.0 °F 32% 30.15 in 10.0 mi Calm Calm - N/A   Clear
1:55 PM 80.6 °F 48.6 °F 33% 30.15 in 10.0 mi ESE 4.6 mph - N/A   Clear
2:15 PM 81.7 °F 49.1 °F 32% 30.14 in 10.0 mi SE 5.8 mph - N/A   Clear
2:35 PM 81.7 °F 48.6 °F 31% 30.14 in 10.0 mi ESE 6.9 mph - N/A   Clear
2:55 PM 81.5 °F 47.3 °F 30% 30.13 in 10.0 mi Calm Calm - N/A   Clear
3:15 PM 81.7 °F 49.3 °F 32% 30.12 in 10.0 mi East 5.8 mph - N/A   Clear
3:35 PM 82.0 °F 50.0 °F 33% 30.12 in 10.0 mi South 5.8 mph - N/A   Clear
3:55 PM 82.0 °F 50.2 °F 33% 30.11 in 10.0 mi Calm Calm - N/A   Clear
4:15 PM 82.0 °F 50.4 °F 33% 30.11 in 10.0 mi Calm Calm - N/A   Clear
4:35 PM 82.2 °F 50.2 °F 33% 30.10 in 10.0 mi East 4.6 mph - N/A   Clear
4:55 PM 82.0 °F 49.6 °F 32% 30.09 in 10.0 mi SE 3.5 mph - N/A   Clear
5:15 PM 81.9 °F 50.4 °F 33% 30.09 in 10.0 mi South 3.5 mph - N/A   Clear
5:35 PM 81.3 °F 50.5 °F 34% 30.08 in 10.0 mi Calm Calm - N/A   Clear
5:55 PM 81.1 °F 49.5 °F 33% 30.08 in 10.0 mi Calm Calm - N/A   Clear
6:15 PM 80.8 °F 49.8 °F 34% 30.08 in 10.0 mi Calm Calm - N/A   Clear
6:35 PM 79.3 °F 51.4 °F 38% 30.07 in 10.0 mi South 3.5 mph - N/A   Clear
6:55 PM 77.9 °F 52.5 °F 41% 30.06 in 10.0 mi Calm Calm - N/A   Clear
7:15 PM 74.1 °F 55.6 °F 52% 30.07 in 10.0 mi Calm Calm - N/A   Clear
7:35 PM 70.9 °F 56.5 °F 60% 30.07 in 10.0 mi Calm Calm - N/A   Clear
7:55 PM 68.9 °F 56.3 °F 64% 30.08 in 7.0 mi Calm Calm - N/A   Clear
8:15 PM 66.4 °F 55.6 °F 68% 30.08 in 7.0 mi Calm Calm - N/A   Clear
8:35 PM 64.9 °F 55.6 °F 72% 30.08 in 7.0 mi Calm Calm - N/A   Clear
8:55 PM 64.0 °F 55.4 °F 73% 30.09 in 10.0 mi Calm Calm - N/A   Clear
9:15 PM 62.6 °F 55.0 °F 76% 30.09 in 10.0 mi Calm Calm - N/A   Clear
9:35 PM 61.7 °F 55.4 °F 80% 30.10 in 7.0 mi Calm Calm - N/A   Clear
9:55 PM 61.5 °F 55.4 °F 80% 30.10 in 10.0 mi Calm Calm - N/A   Clear
10:15 PM 60.8 °F 54.7 °F 80% 30.10 in 10.0 mi Calm Calm - N/A   Clear
10:35 PM 60.4 °F 54.9 °F 82% 30.10 in 10.0 mi Calm Calm - N/A   Clear
10:55 PM 58.5 °F 54.9 °F 88% 30.10 in 10.0 mi Calm Calm - N/A   Clear
11:15 PM 59.2 °F 54.7 °F 85% 30.09 in 10.0 mi Calm Calm - N/A   Clear
11:35 PM 59.0 °F 54.5 °F 85% 30.09 in 10.0 mi Calm Calm - N/A   Clear
11:55 PM 57.6 °F 53.8 °F 87% 30.09 in 10.0 mi Calm Calm - N/A   Clear